Location: Newark
(59.4564°N, 26.6917°E)
Time: 15:41:28
(UTC+00:00)

SR - Pass Details

Date: 01 December 2019
Orbit: 573 x 882 km, 66.7° (Epoch: 10 December)

Event Time Altitude Azimuth Distance (km) Brightness Sun altitude
Rises 10:43:48 0° 211° (SSW) 3,298 ? 8.3°
Reaches altitude 10° 10:46:10 10° 207° (SSW) 2,411 ? 8.2°
Maximum altitude 10:51:41 60° 129° (SE) 982 ? 8.1°
Drops below altitude 10° 10:57:30 10° 52° (NE) 2,544 ? 8.0°
Sets 11:00:04 0° 49° (NE) 3,494 ? 7.9°
